CZ-6A DEB, 61139

Orbit data source: Space-Track

CZ-6A DEB, 61139 is space debris in LEO originally from a launch on Tue, 06 Aug 2024 UTC launched from the Taiyaun Space Center, China (TSC). Debris objects in space refer to the collection of defunct objects orbiting the Earth. Examples of debris include non-operational satellites, rocket bodies, and fragments generated from explosions, collisions, or faulty payload assembly.

Loading next visibility...
Identifier
61139, 2024-140QH
Orbit
LEO
Country
Flag of CNCN / PRC
Related business
Manufacturer
SAST
Mission
Spacecraft
Bus & Motor
Unknown
Mass
Unknown
Launch date (UTC)
2024-08-06 (2 years ago)
Launch vehicle
Unknown
Launch site
Taiyaun Space Center, China (TSC)
Object type
Payload
Rocket body
Debris
Shape & HBR
Unknown shape, 0.1 m
Radar Cross Section
Small (<0.1 m²)

Expand to show TLE details & history
Last TLE update: 19 hours ago

TLE from 19 hours ago
0 CZ-6A DEB
1 61139U 24140QH  26129.88808274  .00000456  00000-0  26315-3 0  9991
2 61139  88.9540 277.6600 0117370  10.6257 349.7362 14.04085361 87768
Epoch: 2026-05-09T21:18Z
TLE epoch observation values (Epoch: 2026-05-09T21:18:50.348Z)
Latitude
-0.00009°
Longitude
90.25116°
Altitude
798.906 km
Speed
7.497 km/s
True Right ascension
18h 30m 38s
True Declination
0° 00' 00"
Sunlit
Object was in full shadow at epoch
Visualization orbit readout
Latitude
Unknown
Longitude
Unknown
Altitude
Unknown
Speed
Unknown
Apparent Right ascension
Unknown
Apparent Declination
Unknown
Sunlit
N/A
Visualization observer readout
Local Sidereal Time
00:23:25
Azimuth
Unknown
Elevation
Unknown
Doppler factor
Unknown
Orbital elements
Apogee altitude
961.806 km
Perigee altitude
791.507 km
Semi-major axis
7,254.793 km
Eccentricity
0.01174
Inclination
88.954°
RAAN
277.66°
Arg. of periapsis
10.6257°
True anomaly
349.49305°
Mean anomaly
349.7362°
Eccentric anomaly
349.61498°
Mean motion
3.51241 °/min
Orbital period
102.49 mins
BSTAR
0.00026315
Loading maneuver chart data...
Computing Atmospheric mass density...
Loading historical data...
Loading historical data...
Loading historical data...
Loading historical data...
Loading historical data...
Loading historical data...
Loading historical data...

Documentation

Showing up to 5 results
|